FW7746 Weather Reports


Display with metric or nautical units.
time (UTC)temp
F
wind
direction
speed
MPH
gust
MPH
rain 1hr
in
rain 24hr
in
rain mn
in
humidity
%
barometer
mb
20260510065103 55 322 0.0 0.0 0.00 0.00 0.00 42 1014.3
20260510064604 56 322 0.0 0.0 0.00 0.00 0.00 42 1014.4
20260510064103 56 322 0.0 0.0 0.00 0.00 0.00 41 1014.4
20260510063604 56 322 0.0 0.0 0.00 0.00 0.00 40 1014.5
20260510063103 57 322 0.0 0.0 0.00 0.00 0.00 40 1014.5
20260510062604 57 322 0.0 0.0 0.00 0.00 0.00 39 1014.5
20260510062103 58 322 0.0 0.0 0.00 0.00 0.00 38 1014.6
20260510061604 58 322 0.0 0.0 0.00 0.00 0.00 37 1014.6
20260510060604 59 322 0.0 0.0 0.00 0.00 0.00 35 1014.6
20260510055604 59 322 0.0 0.0 0.00 0.00 0.00 34 1014.7
20260510055103 60 322 0.0 0.0 0.00 0.00 0.00 33 1014.5
20260510054604 60 322 0.0 0.0 0.00 0.00 0.00 32 1014.5
20260510053104 61 322 0.0 0.0 0.00 0.00 0.00 32 1014.5
20260510052603 61 322 0.0 0.0 0.00 0.00 0.00 31 1014.5
20260510052104 62 322 0.0 0.0 0.00 0.00 0.00 31 1014.5
20260510051603 62 322 0.0 0.0 0.00 0.00 0.00 31 1014.5
20260510051104 63 322 0.0 0.0 0.00 0.00 0.00 30 1014.6
20260510050603 63 322 0.0 0.0 0.00 0.00 0.00 29 1014.6
20260510050103 63 322 0.0 0.0 0.00 0.00 0.00 29 1014.6
20260510045604 64 322 0.0 0.0 0.00 0.00 0.00 29 1014.5
20260510045103 64 322 0.0 0.0 0.00 0.00 0.00 29 1014.6
20260510044605 65 322 0.0 0.0 0.00 0.00 0.00 28 1014.5
20260510044104 65 322 0.0 0.0 0.00 0.00 0.00 27 1014.4
20260510043104 66 322 0.0 0.0 0.00 0.00 0.00 26 1014.4
20260510042604 66 322 0.0 0.0 0.00 0.00 0.00 26 1014.3
20260510042103 66 322 0.0 0.0 0.00 0.00 0.00 26 1014.2
20260510041604 67 322 0.0 0.0 0.00 0.00 0.00 27 1014.2
20260510040604 68 322 0.0 0.0 0.00 0.00 0.00 25 1014.1
20260510040105 69 322 0.0 0.0 0.00 0.00 0.00 25 1014.0
20260510034604 70 322 0.0 0.0 0.00 0.00 0.00 23 1013.8
20260510034104 70 322 0.0 0.0 0.00 0.00 0.00 23 1013.7
20260510032604 71 322 0.0 0.0 0.00 0.00 0.00 21 1013.7
20260510032103 71 322 0.0 0.0 0.00 0.00 0.00 21 1013.8
20260510031604 72 322 0.0 0.0 0.00 0.00 0.00 21 1013.6
20260510031105 72 322 0.0 0.0 0.00 0.00 0.00 20 1013.6
20260510030603 72 322 0.0 0.0 0.00 0.00 0.00 20 1013.5
20260510025104 73 322 0.0 0.0 0.00 0.00 0.00 19 1013.5
20260510024604 74 322 0.0 1.0 0.00 0.00 0.00 19 1013.6
20260510024103 74 320 0.0 0.0 0.00 0.00 0.00 19 1013.6
20260510023603 74 315 0.0 3.0 0.00 0.00 0.00 19 1013.6
20260510023105 74 328 1.0 5.0 0.00 0.00 0.00 18 1013.6
20260510022604 75 326 0.0 3.0 0.00 0.00 0.00 18 1013.5
20260510021604 75 327 1.0 3.0 0.00 0.00 0.00 16 1013.5
20260510021104 76 329 1.0 3.0 0.00 0.00 0.00 16 1013.4
20260510020603 76 319 2.0 8.0 0.00 0.00 0.00 16 1013.4
20260510020104 76 326 2.0 8.0 0.00 0.00 0.00 16 1013.4
20260510015604 77 327 1.0 6.0 0.00 0.00 0.00 16 1013.4
20260510015103 77 329 1.0 5.0 0.00 0.00 0.00 16 1013.4
20260510014604 77 330 2.0 8.0 0.00 0.00 0.00 16 1013.4
20260510014104 77 322 0.0 3.0 0.00 0.00 0.00 16 1013.5
20260510013603 78 324 2.0 5.0 0.00 0.00 0.00 16 1013.5
20260510012603 78 331 0.0 8.0 0.00 0.00 0.00 16 1013.6
20260510012104 78 326 2.0 9.0 0.00 0.00 0.00 15 1013.6
20260510011603 79 328 1.0 5.0 0.00 0.00 0.00 14 1013.5
20260510011104 79 302 0.0 6.0 0.00 0.00 0.00 15 1013.5
20260510010104 79 327 2.0 9.0 0.00 0.00 0.00 15 1013.5
20260510005604 79 329 1.0 5.0 0.00 0.00 0.00 15 1013.5
20260510005103 79 338 1.0 6.0 0.00 0.00 0.00 15 1013.4
20260510004104 80 311 0.0 5.0 0.00 0.00 0.00 15 1013.4
20260510003603 80 311 1.0 8.0 0.00 0.00 0.00 15 1013.3
20260510002604 80 318 1.0 12.0 0.00 0.00 0.00 15 1013.4
20260510002104 80 320 2.0 12.0 0.00 0.00 0.00 15 1013.5
20260510001604 80 325 3.0 7.0 0.00 0.00 0.00 14 1013.5
20260510000604 81 325 1.0 2.0 0.00 0.00 0.00 15 1013.6
20260510000103 82 325 2.0 9.0 0.00 0.00 0.00 14 1013.7
20260509235604 82 304 0.0 1.0 0.00 0.00 0.00 14 1013.7
20260509235103 82 350 1.0 3.0 0.00 0.00 0.00 14 1013.7
20260509234604 82 86 0.0 0.0 0.00 0.00 0.00 15 1013.8
20260509234104 82 71 0.0 2.0 0.00 0.00 0.00 16 1013.7
20260509233603 81 343 2.0 6.0 0.00 0.00 0.00 16 1013.9
20260509233104 82 335 1.0 3.0 0.00 0.00 0.00 15 1014.0
20260509232604 82 323 0.0 2.0 0.00 0.00 0.00 16 1014.0
20260509232104 82 324 1.0 6.0 0.00 0.00 0.00 15 1014.1
20260509231604 82 330 0.0 1.0 0.00 0.00 0.00 16 1014.3
20260509231103 82 313 0.0 2.0 0.00 0.00 0.00 16 1014.6
20260509230604 82 197 1.0 3.0 0.00 0.00 0.00 16 1014.5
20260509230104 82 132 0.0 3.0 0.00 0.00 0.00 15 1014.7
20260509225604 83 180 0.0 2.0 0.00 0.00 0.00 15 1014.7
20260509225104 83 85 1.0 3.0 0.00 0.00 0.00 15 1014.7
20260509224604 82 91 0.0 1.0 0.00 0.00 0.00 16 1014.9
20260509223604 82 108 0.0 3.0 0.00 0.00 0.00 15 1015.1
20260509223103 82 71 0.0 3.0 0.00 0.00 0.00 16 1015.2
20260509222604 82 152 0.0 0.0 0.00 0.00 0.00 15 1015.3
20260509221604 82 149 0.0 2.0 0.00 0.00 0.00 15 1015.4
20260509221103 83 25 0.0 2.0 0.00 0.00 0.00 16 1015.3
20260509220604 83 162 0.0 1.0 0.00 0.00 0.00 16 1015.5
20260509215603 83 213 0.0 2.0 0.00 0.00 0.00 16 1015.7
20260509214604 82 213 0.0 0.0 0.00 0.00 0.00 15 1015.8
20260509214104 82 206 0.0 2.0 0.00 0.00 0.00 16 1016.0
20260509213603 81 324 0.0 0.0 0.00 0.00 0.00 17 1015.9
20260509213104 80 325 0.0 0.0 0.00 0.00 0.00 17 1016.0
20260509212604 80 325 0.0 3.0 0.00 0.00 0.00 18 1015.9
20260509212104 79 77 1.0 3.0 0.00 0.00 0.00 18 1016.0
20260509211604 79 328 1.0 5.0 0.00 0.00 0.00 17 1016.1
20260509211103 79 348 0.0 2.0 0.00 0.00 0.00 19 1016.1
20260509210104 78 332 0.0 3.0 0.00 0.00 0.00 18 1016.3
20260509205604 78 314 1.0 8.0 0.00 0.00 0.00 18 1016.3
20260509205104 78 1 0.0 3.0 0.00 0.00 0.00 19 1016.4
20260509204604 77 93 0.0 1.0 0.00 0.00 0.00 19 1016.4
20260509204103 77 346 0.0 3.0 0.00 0.00 0.00 19 1016.6
20260509203604 78 323 1.0 3.0 0.00 0.00 0.00 19 1016.6
20260509203104 78 313 1.0 3.0 0.00 0.00 0.00 18 1016.6
20260509202603 79 316 1.0 3.0 0.00 0.00 0.00 19 1016.7
20260509202104 79 198 0.0 2.0 0.00 0.00 0.00 19 1016.8
20260509201104 78 1 0.0 1.0 0.00 0.00 0.00 20 1016.8
20260509200604 77 348 0.0 3.0 0.00 0.00 0.00 19 1016.9
20260509200104 77 18 0.0 2.0 0.00 0.00 0.00 21 1017.0
20260509195104 76 63 1.0 3.0 0.00 0.00 0.00 20 1017.1
20260509194603 76 338 1.0 3.0 0.00 0.00 0.00 21 1017.2
20260509194103 76 68 0.0 3.0 0.00 0.00 0.00 19 1017.3
20260509193604 76 77 1.0 3.0 0.00 0.00 0.00 20 1017.4
20260509193104 76 72 1.0 3.0 0.00 0.00 0.00 20 1017.4
20260509192104 75 3 0.0 3.0 0.00 0.00 0.00 22 1017.6
20260509191103 74 233 0.0 3.0 0.00 0.00 0.00 22 1017.6
20260509190104 74 43 0.0 2.0 0.00 0.00 0.00 23 1017.9
20260509185104 73 98 0.0 2.0 0.00 0.00 0.00 24 1018.0
20260509184604 73 98 0.0 0.0 0.00 0.00 0.00 23 1018.1
20260509184104 72 105 1.0 6.0 0.00 0.00 0.00 24 1018.2
20260509183604 72 168 0.0 0.0 0.00 0.00 0.00 26 1018.1
20260509183104 72 163 0.0 0.0 0.00 0.00 0.00 25 1018.2
20260509182604 71 161 1.0 5.0 0.00 0.00 0.00 26 1018.2
20260509182103 71 141 0.0 2.0 0.00 0.00 0.00 27 1018.2
20260509180604 70 82 0.0 2.0 0.00 0.00 0.00 29 1018.3
20260509180104 69 67 0.0 2.0 0.00 0.00 0.00 30 1018.4
20260509175603 69 310 1.0 3.0 0.00 0.00 0.00 31 1018.5
20260509175104 69 105 0.0 1.0 0.00 0.00 0.00 32 1018.6
20260509174603 69 106 0.0 2.0 0.00 0.00 0.00 31 1018.5
20260509174104 68 121 0.0 2.0 0.00 0.00 0.00 33 1018.5
20260509173604 68 121 1.0 3.0 0.00 0.00 0.00 33 1018.4
20260509173103 67 130 0.0 2.0 0.00 0.00 0.00 34 1018.6
20260509172604 67 110 1.0 2.0 0.00 0.00 0.00 34 1018.7
20260509172104 66 113 0.0 3.0 0.00 0.00 0.00 35 1018.7
20260509171604 66 165 0.0 0.0 0.00 0.00 0.00 37 1018.8
20260509171104 65 173 0.0 0.0 0.00 0.00 0.00 38 1018.7
20260509170603 65 183 0.0 0.0 0.00 0.00 0.00 37 1018.8
20260509170104 64 183 0.0 0.0 0.00 0.00 0.00 38 1018.9
20260509165604 64 182 0.0 0.0 0.00 0.00 0.00 38 1018.9
20260509165104 64 182 0.0 0.0 0.00 0.00 0.00 38 1018.9
20260509164604 63 182 0.0 0.0 0.00 0.00 0.00 40 1018.8
20260509164105 62 170 0.0 1.0 0.00 0.00 0.00 39 1019.0
20260509163603 62 169 0.0 0.0 0.00 0.00 0.00 41 1019.0
20260509163104 61 169 0.0 0.0 0.00 0.00 0.00 42 1019.0
20260509162604 61 216 0.0 0.0 0.00 0.00 0.00 44 1019.0
20260509162104 60 216 0.0 2.0 0.00 0.00 0.00 45 1019.0
20260509161604 60 221 0.0 3.0 0.00 0.00 0.00 46 1019.1
20260509161104 59 157 0.0 0.0 0.00 0.00 0.00 49 1019.1
20260509160604 59 156 0.0 0.0 0.00 0.00 0.00 50 1019.1
20260509160104 58 157 0.0 0.0 0.00 0.00 0.00 52 1019.0
20260509155604 58 157 0.0 1.0 0.00 0.00 0.00 53 1019.0
20260509155104 57 200 0.0 0.0 0.00 0.00 0.00 55 1019.1
20260509154603 56 200 0.0 2.0 0.00 0.00 0.00 56 1019.1
20260509154104 56 136 0.0 0.0 0.00 0.00 0.00 57 1019.2
20260509153603 55 135 0.0 1.0 0.00 0.00 0.00 59 1019.1
20260509153104 54 134 0.0 0.0 0.00 0.00 0.00 60 1019.2
20260509152604 54 123 0.0 0.0 0.00 0.00 0.00 61 1019.3
20260509152104 53 121 0.0 0.0 0.00 0.00 0.00 62 1019.5
20260509151604 53 116 0.0 1.0 0.00 0.00 0.00 62 1019.6
20260509150604 52 221 0.0 0.0 0.00 0.00 0.00 65 1019.6
20260509145604 51 238 1.0 3.0 0.00 0.00 0.00 67 1019.4
20260509145104 50 172 0.0 0.0 0.00 0.00 0.00 68 1019.4
20260509144604 50 172 0.0 0.0 0.00 0.00 0.00 68 1019.5
20260509144104 50 171 0.0 1.0 0.00 0.00 0.00 69 1019.5
20260509143604 49 178 0.0 0.0 0.00 0.00 0.00 70 1019.5
20260509142604 48 204 0.0 3.0 0.00 0.00 0.00 71 1019.3
20260509142104 47 181 0.0 2.0 0.00 0.00 0.00 72 1019.3
20260509141604 47 140 0.0 3.0 0.00 0.00 0.00 73 1019.4
20260509141104 46 185 0.0 2.0 0.00 0.00 0.00 73 1019.2
20260509140604 46 230 1.0 5.0 0.00 0.00 0.00 73 1019.2
20260509140105 45 197 0.0 2.0 0.00 0.00 0.00 74 1019.2
20260509134604 44 177 0.0 0.0 0.00 0.00 0.00 76 1019.2
20260509134103 44 177 0.0 0.0 0.00 0.00 0.00 77 1019.3
20260509133104 43 177 0.0 0.0 0.00 0.00 0.00 77 1019.1
20260509132603 43 177 0.0 0.0 0.00 0.00 0.00 77 1019.1
20260509132104 42 177 0.0 0.0 0.00 0.00 0.00 77 1019.0
20260509131604 42 177 0.0 0.0 0.00 0.00 0.00 77 1019.0
20260509130604 42 177 0.0 0.0 0.00 0.00 0.00 76 1018.9
20260509130104 42 177 0.0 0.0 0.00 0.00 0.00 75 1018.9
20260509125104 43 177 0.0 0.0 0.00 0.00 0.00 74 1018.9
20260509124604 43 177 0.0 0.0 0.00 0.00 0.00 74 1019.0
20260509123604 43 190 0.0 2.0 0.00 0.00 0.00 76 1018.7
20260509123104 43 219 0.0 2.0 0.00 0.00 0.00 77 1018.7
20260509122604 43 216 0.0 1.0 0.00 0.00 0.00 76 1018.7
20260509122103 43 247 0.0 0.0 0.00 0.00 0.00 76 1018.7
20260509121604 43 252 0.0 0.0 0.00 0.00 0.00 76 1018.7
20260509121104 43 250 0.0 1.0 0.00 0.00 0.00 76 1018.8
20260509120104 43 254 0.0 0.0 0.00 0.00 0.00 75 1018.8
20260509115604 43 259 0.0 0.0 0.00 0.00 0.00 74 1018.9
20260509115103 43 268 0.0 0.0 0.00 0.00 0.00 73 1018.9
20260509114604 43 273 0.0 0.0 0.00 0.00 0.00 73 1019.0
20260509114104 43 273 0.0 0.0 0.00 0.00 0.00 73 1019.0
20260509113104 43 272 0.0 0.0 0.00 0.00 0.00 73 1019.1
20260509112604 43 272 0.0 0.0 0.00 0.00 0.00 73 1019.1
20260509112104 43 271 0.0 1.0 0.00 0.00 0.00 73 1019.1
20260509111104 43 273 0.0 0.0 0.00 0.00 0.00 73 1019.1
20260509110604 42 310 0.0 0.0 0.00 0.00 0.00 73 1019.1
20260509110104 42 310 0.0 0.0 0.00 0.00 0.00 72 1019.1
20260509105604 42 311 0.0 0.0 0.00 0.00 0.00 71 1019.2
20260509104603 42 316 0.0 0.0 0.00 0.00 0.00 71 1019.4
20260509104108 42 316 0.0 0.0 0.00 0.00 0.00 70 1019.3
20260509103604 43 316 0.0 0.0 0.00 0.00 0.00 70 1019.3
20260509102603 43 316 0.0 0.0 0.00 0.00 0.00 69 1019.2
20260509102104 43 316 0.0 0.0 0.00 0.00 0.00 67 1019.1
20260509101603 43 316 0.0 0.0 0.00 0.00 0.00 67 1019.1
20260509101104 43 316 0.0 0.0 0.00 0.00 0.00 67 1019.2
20260509100604 43 316 0.0 0.0 0.00 0.00 0.00 67 1019.2
20260509100104 43 316 0.0 0.0 0.00 0.00 0.00 67 1019.3
20260509095604 43 316 0.0 0.0 0.00 0.00 0.00 67 1019.3
20260509095104 43 316 0.0 0.0 0.00 0.00 0.00 66 1019.3
20260509094604 44 316 0.0 0.0 0.00 0.00 0.00 66 1019.4
20260509094104 44 316 0.0 0.0 0.00 0.00 0.00 66 1019.4
20260509093104 44 316 0.0 0.0 0.00 0.00 0.00 66 1019.3
20260509092604 44 316 0.0 0.0 0.00 0.00 0.00 66 1019.4
20260509092104 44 316 0.0 0.0 0.00 0.00 0.00 66 1019.2
20260509091603 44 316 0.0 0.0 0.00 0.00 0.00 66 1019.2
20260509091104 44 316 0.0 0.0 0.00 0.00 0.00 66 1019.3
20260509090604 44 316 0.0 0.0 0.00 0.00 0.00 65 1019.3
20260509090104 44 316 0.0 0.0 0.00 0.00 0.00 65 1019.4
20260509085104 45 316 0.0 0.0 0.00 0.00 0.00 65 1019.2
20260509084604 45 316 0.0 0.0 0.00 0.00 0.00 65 1019.3
20260509084104 45 316 0.0 0.0 0.00 0.00 0.00 65 1019.3
20260509083604 45 316 0.0 0.0 0.00 0.00 0.00 65 1019.4
20260509083103 45 316 0.0 0.0 0.00 0.00 0.00 64 1019.4
20260509082104 45 316 0.0 0.0 0.00 0.00 0.00 65 1019.4
20260509081104 46 316 0.0 0.0 0.00 0.00 0.00 64 1019.4
20260509080604 46 316 0.0 0.0 0.00 0.00 0.00 64 1019.4
20260509080105 46 317 0.0 0.0 0.00 0.00 0.00 64 1019.4
20260509075604 46 316 0.0 0.0 0.00 0.00 0.00 63 1019.4
20260509075103 46 316 0.0 0.0 0.00 0.00 0.00 63 1019.4
20260509074604 46 316 0.0 0.0 0.00 0.00 0.00 62 1019.4
20260509074104 46 316 0.0 0.0 0.00 0.00 0.00 62 1019.3
20260509073603 47 316 0.0 0.0 0.00 0.00 0.00 62 1019.3
20260509073104 47 316 0.0 0.0 0.00 0.00 0.00 61 1019.2
20260509072604 47 316 0.0 0.0 0.00 0.00 0.00 61 1019.2
20260509072104 47 316 0.0 0.0 0.00 0.00 0.00 60 1019.2
20260509071604 47 316 0.0 0.0 0.00 0.00 0.00 59 1019.2
20260509071104 48 316 0.0 0.0 0.00 0.00 0.00 60 1019.2
20260509070605 48 316 0.0 0.0 0.00 0.00 0.00 59 1019.0
20260509070104 48 316 0.0 0.0 0.00 0.00 0.00 59 1019.0
20260509065604 49 316 0.0 0.0 0.00 0.00 0.00 58 1018.8